Time,TemperatureF,DewpointF,PressureIn,WindDirection,WindDirectionDegrees,WindSpeedMPH,WindSpeedGustMPH,Humidity,HourlyPrecipIn,Conditions,Clouds,dailyrainin,SoftwareType,DateUTC
2013-10-17 00:00:00,41.2,32.5,30.02,SE,138,3.0,37.0,71,0.00,,,0.00,Wunderground v.1.15,2013-10-17 05:00:00,
2013-10-17 00:05:00,41.1,32.4,30.02,SE,138,4.0,37.0,71,0.00,,,0.00,Wunderground v.1.15,2013-10-17 05:05:00,
2013-10-17 00:10:00,41.2,32.9,30.02,SE,138,4.0,37.0,72,0.00,,,0.00,Wunderground v.1.15,2013-10-17 05:10:00,
2013-10-17 00:15:00,41.3,33.0,30.02,SE,138,4.0,37.0,72,0.00,,,0.00,Wunderground v.1.15,2013-10-17 05:15:00,
2013-10-17 00:20:00,41.2,32.9,30.02,SE,138,3.0,37.0,72,0.00,,,0.00,Wunderground v.1.15,2013-10-17 05:20:00,
2013-10-17 00:30:00,41.1,32.8,30.02,SE,138,4.0,37.0,72,0.00,,,0.00,Wunderground v.1.15,2013-10-17 05:30:00,
2013-10-17 00:35:00,40.8,32.8,30.02,SE,138,4.0,37.0,73,0.00,,,0.00,Wunderground v.1.15,2013-10-17 05:35:00,
2013-10-17 00:40:00,41.0,33.0,30.02,SE,138,4.0,37.0,73,0.00,,,0.00,Wunderground v.1.15,2013-10-17 05:40:00,
2013-10-17 00:45:00,40.9,32.9,30.02,SE,138,4.0,37.0,73,0.00,,,0.00,Wunderground v.1.15,2013-10-17 05:45:00,
2013-10-17 00:50:00,40.7,33.1,30.02,SE,138,3.0,37.0,74,0.00,,,0.00,Wunderground v.1.15,2013-10-17 05:50:00,
2013-10-17 01:00:00,40.5,33.2,30.01,SE,142,5.0,37.0,75,0.00,,,0.00,Wunderground v.1.15,2013-10-17 06:00:00,
2013-10-17 01:05:00,40.2,33.2,30.01,SE,142,5.0,37.0,76,0.00,,,0.00,Wunderground v.1.15,2013-10-17 06:05:00,
2013-10-17 01:10:00,39.9,33.3,30.01,SE,142,4.0,4.0,77,0.00,,,0.00,Wunderground v.1.15,2013-10-17 06:10:00,
2013-10-17 01:15:00,39.6,33.3,30.01,SE,142,4.0,37.0,78,0.00,,,0.00,Wunderground v.1.15,2013-10-17 06:15:00,
2013-10-17 01:20:00,39.3,33.3,30.01,SE,142,4.0,37.0,79,0.00,,,0.00,Wunderground v.1.15,2013-10-17 06:20:00,
2013-10-17 01:25:00,39.3,33.6,30.01,SE,142,4.0,37.0,80,0.00,,,0.00,Wunderground v.1.15,2013-10-17 06:25:00,
2013-10-17 01:35:00,39.3,33.3,30.01,SE,142,5.0,37.0,79,0.00,,,0.00,Wunderground v.1.15,2013-10-17 06:35:00,
2013-10-17 01:40:00,39.3,33.6,30.01,SE,142,5.0,37.0,80,0.00,,,0.00,Wunderground v.1.15,2013-10-17 06:40:00,
2013-10-17 01:45:00,39.2,33.5,30.01,SE,142,5.0,37.0,80,0.00,,,0.00,Wunderground v.1.15,2013-10-17 06:45:00,
2013-10-17 01:50:00,39.4,33.7,30.01,SE,142,5.0,5.0,80,0.00,,,0.00,Wunderground v.1.15,2013-10-17 06:50:00,
2013-10-17 01:55:00,39.2,33.5,30.01,SE,142,5.0,6.0,80,0.00,,,0.00,Wunderground v.1.15,2013-10-17 06:55:00,
2013-10-17 02:05:00,38.8,33.5,30.00,SE,142,5.0,37.0,81,0.00,,,0.00,Wunderground v.1.15,2013-10-17 07:05:00,
2013-10-17 02:10:00,38.4,33.4,30.00,SE,142,5.0,37.0,82,0.00,,,0.00,Wunderground v.1.15,2013-10-17 07:10:00,
2013-10-17 02:15:00,38.4,33.4,30.00,SE,142,5.0,37.0,82,0.00,,,0.00,Wunderground v.1.15,2013-10-17 07:15:00,
2013-10-17 02:20:00,38.3,33.3,30.00,SE,142,5.0,37.0,82,0.00,,,0.00,Wunderground v.1.15,2013-10-17 07:20:00,
2013-10-17 02:25:00,37.9,32.9,30.00,SE,142,5.0,37.0,82,0.00,,,0.00,Wunderground v.1.15,2013-10-17 07:25:00,
2013-10-17 02:30:00,37.5,32.8,30.00,SE,142,5.0,37.0,83,0.00,,,0.00,Wunderground v.1.15,2013-10-17 07:30:00,
2013-10-17 02:40:00,37.2,32.8,30.00,SE,142,5.0,37.0,84,0.00,,,0.00,Wunderground v.1.15,2013-10-17 07:40:00,
2013-10-17 02:45:00,37.3,32.6,30.00,SE,142,5.0,37.0,83,0.00,,,0.00,Wunderground v.1.15,2013-10-17 07:45:00,
2013-10-17 02:50:00,37.4,32.7,30.00,SE,142,5.0,5.0,83,0.00,,,0.00,Wunderground v.1.15,2013-10-17 07:50:00,
2013-10-17 02:55:00,37.4,32.7,30.00,SE,142,5.0,37.0,83,0.00,,,0.00,Wunderground v.1.15,2013-10-17 07:55:00,
2013-10-17 03:00:00,37.4,32.7,30.00,SE,142,5.0,37.0,83,0.00,,,0.00,Wunderground v.1.15,2013-10-17 08:00:00,
2013-10-17 03:10:00,37.1,32.7,29.99,SE,142,5.0,37.0,84,0.00,,,0.00,Wunderground v.1.15,2013-10-17 08:10:00,
2013-10-17 03:15:00,37.1,32.7,29.99,SE,142,5.0,37.0,84,0.00,,,0.00,Wunderground v.1.15,2013-10-17 08:15:00,
2013-10-17 03:20:00,37.0,32.6,29.99,SE,142,5.0,37.0,84,0.00,,,0.00,Wunderground v.1.15,2013-10-17 08:20:00,
2013-10-17 03:25:00,36.9,32.5,29.99,SE,142,5.0,37.0,84,0.00,,,0.00,Wunderground v.1.15,2013-10-17 08:25:00,
2013-10-17 03:30:00,36.9,32.5,29.99,SSE,148,6.0,37.0,84,0.00,,,0.00,Wunderground v.1.15,2013-10-17 08:30:00,
2013-10-17 03:35:00,36.7,32.6,29.98,SSE,151,6.0,37.0,85,0.00,,,0.00,Wunderground v.1.15,2013-10-17 08:35:00,
2013-10-17 03:40:00,36.4,32.3,29.98,SSE,151,5.0,37.0,85,0.00,,,0.00,Wunderground v.1.15,2013-10-17 08:40:00,
2013-10-17 03:45:00,36.1,32.0,29.98,SSE,151,5.0,37.0,85,0.00,,,0.00,Wunderground v.1.15,2013-10-17 08:45:00,
2013-10-17 03:50:00,35.9,32.1,29.98,SSE,151,5.0,37.0,86,0.00,,,0.00,Wunderground v.1.15,2013-10-17 08:50:00,
2013-10-17 03:55:00,36.0,32.2,29.98,SSE,151,5.0,37.0,86,0.00,,,0.00,Wunderground v.1.15,2013-10-17 08:55:00,
2013-10-17 04:00:00,36.0,32.2,29.98,SSE,151,5.0,5.0,86,0.00,,,0.00,Wunderground v.1.15,2013-10-17 09:00:00,
2013-10-17 04:05:00,36.0,32.2,29.98,SSE,151,5.0,37.0,86,0.00,,,0.00,Wunderground v.1.15,2013-10-17 09:05:00,
2013-10-17 04:15:00,35.6,31.8,29.98,SSE,151,4.0,37.0,86,0.00,,,0.00,Wunderground v.1.15,2013-10-17 09:15:00,
2013-10-17 04:20:00,35.5,32.0,29.98,SSE,151,4.0,37.0,87,0.00,,,0.00,Wunderground v.1.15,2013-10-17 09:20:00,
2013-10-17 04:25:00,35.3,31.8,29.98,SSE,151,5.0,37.0,87,0.00,,,0.00,Wunderground v.1.15,2013-10-17 09:25:00,
2013-10-17 04:30:00,35.0,31.5,29.98,SSE,151,4.0,37.0,87,0.00,,,0.00,Wunderground v.1.15,2013-10-17 09:30:00,
2013-10-17 04:35:00,34.9,31.4,29.98,SSE,151,5.0,37.0,87,0.00,,,0.00,Wunderground v.1.15,2013-10-17 09:35:00,
2013-10-17 04:45:00,34.7,31.5,29.98,SSE,152,5.0,37.0,88,0.00,,,0.00,Wunderground v.1.15,2013-10-17 09:45:00,
2013-10-17 04:50:00,34.6,31.4,29.98,SSE,152,5.0,37.0,88,0.00,,,0.00,Wunderground v.1.15,2013-10-17 09:50:00,
2013-10-17 04:55:00,34.6,31.4,29.98,SSE,152,5.0,37.0,88,0.00,,,0.00,Wunderground v.1.15,2013-10-17 09:55:00,
2013-10-17 05:00:00,34.6,31.4,29.98,SSE,152,4.0,37.0,88,0.00,,,0.00,Wunderground v.1.15,2013-10-17 10:00:00,
2013-10-17 05:05:00,34.8,31.6,29.98,SSE,152,5.0,37.0,88,0.00,,,0.00,Wunderground v.1.15,2013-10-17 10:05:00,
2013-10-17 05:10:00,35.0,31.8,29.98,SSE,152,5.0,37.0,88,0.00,,,0.00,Wunderground v.1.15,2013-10-17 10:10:00,
2013-10-17 05:20:00,34.8,31.3,29.98,SSE,157,5.0,37.0,87,0.00,,,0.00,Wunderground v.1.15,2013-10-17 10:20:00,
2013-10-17 05:25:00,34.7,31.5,29.98,SSE,167,5.0,37.0,88,0.00,,,0.00,Wunderground v.1.15,2013-10-17 10:25:00,
2013-10-17 05:30:00,34.8,31.6,29.98,South,176,5.0,37.0,88,0.00,,,0.00,Wunderground v.1.15,2013-10-17 10:30:00,
2013-10-17 05:35:00,34.9,31.4,29.98,South,176,5.0,37.0,87,0.00,,,0.00,Wunderground v.1.15,2013-10-17 10:35:00,
2013-10-17 05:40:00,35.0,31.5,29.98,South,176,4.0,37.0,87,0.00,,,0.00,Wunderground v.1.15,2013-10-17 10:40:00,
2013-10-17 05:50:00,34.8,31.3,29.98,South,176,4.0,4.0,87,0.00,,,0.00,Wunderground v.1.15,2013-10-17 10:50:00,
2013-10-17 05:55:00,34.5,31.0,29.98,South,176,4.0,5.0,87,0.00,,,0.00,Wunderground v.1.15,2013-10-17 10:55:00,
2013-10-17 06:00:00,34.2,30.7,29.98,South,177,4.0,37.0,87,0.00,,,0.00,Wunderground v.1.15,2013-10-17 11:00:00,
2013-10-17 06:05:00,34.0,30.8,29.98,South,177,4.0,37.0,88,0.00,,,0.00,Wunderground v.1.15,2013-10-17 11:05:00,
2013-10-17 06:10:00,33.9,30.7,29.98,South,178,4.0,37.0,88,0.00,,,0.00,Wunderground v.1.15,2013-10-17 11:10:00,
2013-10-17 06:15:00,33.9,30.7,29.98,South,178,5.0,37.0,88,0.00,,,0.00,Wunderground v.1.15,2013-10-17 11:15:00,
2013-10-17 06:25:00,34.0,30.8,29.98,South,178,4.0,37.0,88,0.00,,,0.00,Wunderground v.1.15,2013-10-17 11:25:00,
2013-10-17 06:30:00,33.9,30.7,29.98,South,178,4.0,37.0,88,0.00,,,0.00,Wunderground v.1.15,2013-10-17 11:30:00,
2013-10-17 06:35:00,33.9,31.0,29.98,South,178,4.0,37.0,89,0.00,,,0.00,Wunderground v.1.15,2013-10-17 11:35:00,
2013-10-17 06:40:00,33.9,31.0,29.98,South,178,4.0,37.0,89,0.00,,,0.00,Wunderground v.1.15,2013-10-17 11:40:00,
2013-10-17 06:45:00,34.0,31.1,29.98,South,178,4.0,37.0,89,0.00,,,0.00,Wunderground v.1.15,2013-10-17 11:45:00,
2013-10-17 06:55:00,33.6,30.7,29.99,South,178,5.0,37.0,89,0.00,,,0.00,Wunderground v.1.15,2013-10-17 11:55:00,
2013-10-17 07:00:00,33.6,30.7,29.99,South,180,5.0,37.0,89,0.00,,,0.00,Wunderground v.1.15,2013-10-17 12:00:00,
2013-10-17 07:55:00,33.7,31.1,29.99,WSW,245,6.0,37.0,90,0.00,,,0.00,Wunderground v.1.15,2013-10-17 12:55:00,
2013-10-17 08:00:00,33.9,31.3,29.99,West,267,6.0,6.0,90,0.00,,,0.00,Wunderground v.1.15,2013-10-17 13:00:00,
2013-10-17 08:05:00,34.1,31.5,29.99,West,273,6.0,7.0,90,0.00,,,0.00,Wunderground v.1.15,2013-10-17 13:05:00,
2013-10-17 08:10:00,34.2,31.6,29.99,West,273,6.0,6.0,90,0.00,,,0.00,Wunderground v.1.15,2013-10-17 13:10:00,
2013-10-17 08:15:00,34.4,31.8,30.00,West,274,6.0,7.0,90,0.00,,,0.00,Wunderground v.1.15,2013-10-17 13:15:00,
2013-10-17 08:20:00,34.7,31.8,30.00,West,279,6.0,37.0,89,0.00,,,0.00,Wunderground v.1.15,2013-10-17 13:20:00,
2013-10-17 08:30:00,35.3,32.4,30.00,West,279,6.0,6.0,89,0.00,,,0.00,Wunderground v.1.15,2013-10-17 13:30:00,
2013-10-17 08:35:00,35.7,32.8,30.01,West,279,6.0,37.0,89,0.00,,,0.00,Wunderground v.1.15,2013-10-17 13:35:00,
2013-10-17 08:40:00,36.2,33.0,30.01,West,279,6.0,37.0,88,0.00,,,0.00,Wunderground v.1.15,2013-10-17 13:40:00,
2013-10-17 08:45:00,36.6,33.4,30.01,West,279,6.0,37.0,88,0.00,,,0.00,Wunderground v.1.15,2013-10-17 13:45:00,
2013-10-17 08:50:00,37.1,33.6,30.01,WNW,283,7.0,37.0,87,0.00,,,0.00,Wunderground v.1.15,2013-10-17 13:50:00,
2013-10-17 09:00:00,38.0,34.2,30.02,WNW,284,8.0,8.0,86,0.00,,,0.00,Wunderground v.1.15,2013-10-17 14:00:00,
2013-10-17 09:05:00,38.4,34.3,30.02,WNW,289,8.0,37.0,85,0.00,,,0.00,Wunderground v.1.15,2013-10-17 14:05:00,
2013-10-17 09:10:00,38.8,34.7,30.02,WNW,292,7.0,37.0,85,0.00,,,0.00,Wunderground v.1.15,2013-10-17 14:10:00,
2013-10-17 09:15:00,39.4,35.0,30.02,WNW,290,7.0,37.0,84,0.00,,,0.00,Wunderground v.1.15,2013-10-17 14:15:00,
2013-10-17 09:20:00,39.9,35.5,30.02,WNW,290,7.0,37.0,84,0.00,,,0.00,Wunderground v.1.15,2013-10-17 14:20:00,
2013-10-17 09:25:00,40.6,36.1,30.02,WNW,290,7.0,37.0,84,0.00,,,0.00,Wunderground v.1.15,2013-10-17 14:25:00,
2013-10-17 09:30:00,41.3,36.2,30.02,WNW,301,8.0,8.0,82,0.00,,,0.00,Wunderground v.1.15,2013-10-17 14:30:00,
2013-10-17 09:35:00,41.9,36.8,30.02,WNW,298,7.0,37.0,82,0.00,,,0.00,Wunderground v.1.15,2013-10-17 14:35:00,
2013-10-17 09:40:00,42.6,37.2,30.02,WNW,290,6.0,37.0,81,0.00,,,0.00,Wunderground v.1.15,2013-10-17 14:40:00,
2013-10-17 09:45:00,43.3,37.2,30.02,WNW,298,7.0,37.0,79,0.00,,,0.00,Wunderground v.1.15,2013-10-17 14:45:00,
2013-10-17 09:50:00,44.0,37.6,30.02,WNW,302,7.0,37.0,78,0.00,,,0.00,Wunderground v.1.15,2013-10-17 14:50:00,
2013-10-17 09:55:00,44.5,37.7,30.02,NW,304,9.0,37.0,77,0.00,,,0.00,Wunderground v.1.15,2013-10-17 14:55:00,
2013-10-17 10:05:00,45.0,37.2,30.03,WNW,293,11.0,37.0,74,0.00,,,0.00,Wunderground v.1.15,2013-10-17 15:05:00,
2013-10-17 10:10:00,45.2,37.4,30.03,NW,309,11.0,11.0,74,0.00,,,0.00,Wunderground v.1.15,2013-10-17 15:10:00,
2013-10-17 10:15:00,45.5,37.3,30.02,NW,309,10.0,37.0,73,0.00,,,0.00,Wunderground v.1.15,2013-10-17 15:15:00,
2013-10-17 10:20:00,46.0,37.5,30.03,NW,318,10.0,37.0,72,0.00,,,0.00,Wunderground v.1.15,2013-10-17 15:20:00,
2013-10-17 10:25:00,46.6,37.7,30.03,NW,319,11.0,37.0,71,0.00,,,0.00,Wunderground v.1.15,2013-10-17 15:25:00,
2013-10-17 10:30:00,47.2,37.9,30.03,NW,309,12.0,12.0,70,0.00,,,0.00,Wunderground v.1.15,2013-10-17 15:30:00,
2013-10-17 10:40:00,46.8,37.5,30.03,WNW,303,12.0,37.0,70,0.00,,,0.00,Wunderground v.1.15,2013-10-17 15:40:00,
2013-10-17 10:45:00,47.0,37.7,30.03,WNW,301,12.0,37.0,70,0.00,,,0.00,Wunderground v.1.15,2013-10-17 15:45:00,
2013-10-17 10:50:00,47.4,38.1,30.04,WNW,290,12.0,37.0,70,0.00,,,0.00,Wunderground v.1.15,2013-10-17 15:50:00,
2013-10-17 10:55:00,47.5,37.8,30.04,WNW,298,12.0,37.0,69,0.00,,,0.00,Wunderground v.1.15,2013-10-17 15:55:00,
2013-10-17 11:00:00,48.1,38.4,30.04,WNW,296,12.0,37.0,69,0.00,,,0.00,Wunderground v.1.15,2013-10-17 16:00:00,
2013-10-17 11:10:00,49.3,38.8,30.04,WNW,288,11.0,37.0,67,0.00,,,0.00,Wunderground v.1.15,2013-10-17 16:10:00,
2013-10-17 11:15:00,49.8,38.9,30.03,WNW,292,12.0,37.0,66,0.00,,,0.00,Wunderground v.1.15,2013-10-17 16:15:00,
2013-10-17 11:20:00,50.0,39.5,30.04,WNW,286,13.0,13.0,67,0.00,,,0.00,Wunderground v.1.15,2013-10-17 16:20:00,
2013-10-17 11:25:00,50.3,39.4,30.04,WNW,302,11.0,37.0,66,0.00,,,0.00,Wunderground v.1.15,2013-10-17 16:25:00,
2013-10-17 11:30:00,50.5,39.2,30.04,NW,323,10.0,37.0,65,0.00,,,0.00,Wunderground v.1.15,2013-10-17 16:30:00,
2013-10-17 11:35:00,50.6,39.3,30.04,WNW,291,12.0,37.0,65,0.00,,,0.00,Wunderground v.1.15,2013-10-17 16:35:00,
2013-10-17 11:45:00,51.4,39.2,30.04,NW,305,13.0,37.0,63,0.00,,,0.00,Wunderground v.1.15,2013-10-17 16:45:00,
2013-10-17 11:50:00,51.6,39.4,30.04,NW,310,15.0,15.0,63,0.00,,,0.00,Wunderground v.1.15,2013-10-17 16:50:00,
2013-10-17 11:55:00,51.5,39.7,30.05,WNW,291,13.0,37.0,64,0.00,,,0.00,Wunderground v.1.15,2013-10-17 16:55:00,
2013-10-17 12:00:00,51.7,39.5,30.05,WNW,290,13.0,37.0,63,0.00,,,0.00,Wunderground v.1.15,2013-10-17 17:00:00,
2013-10-17 12:05:00,51.7,39.9,30.04,NW,315,14.0,37.0,64,0.00,,,0.00,Wunderground v.1.15,2013-10-17 17:05:00,
2013-10-17 12:15:00,51.9,40.1,30.05,NW,304,15.0,37.0,64,0.00,,,0.00,Wunderground v.1.15,2013-10-17 17:15:00,
2013-10-17 12:20:00,52.1,40.3,30.05,WNW,292,14.0,14.0,64,0.00,,,0.00,Wunderground v.1.15,2013-10-17 17:20:00,
2013-10-17 12:25:00,51.8,40.0,30.05,WNW,296,14.0,15.0,64,0.00,,,0.00,Wunderground v.1.15,2013-10-17 17:25:00,
2013-10-17 12:30:00,52.0,40.6,30.05,WNW,287,15.0,37.0,65,0.00,,,0.00,Wunderground v.1.15,2013-10-17 17:30:00,
2013-10-17 12:35:00,52.1,40.3,30.05,NW,306,15.0,37.0,64,0.00,,,0.00,Wunderground v.1.15,2013-10-17 17:35:00,
2013-10-17 12:40:00,52.7,41.3,30.05,NW,317,14.0,14.0,65,0.00,,,0.00,Wunderground v.1.15,2013-10-17 17:40:00,
2013-10-17 12:45:00,52.5,40.7,30.05,NW,325,14.0,18.0,64,0.00,,,0.00,Wunderground v.1.15,2013-10-17 17:45:00,
2013-10-17 12:50:00,52.4,41.0,30.05,WNW,286,15.0,37.0,65,0.00,,,0.00,Wunderground v.1.15,2013-10-17 17:50:00,
2013-10-17 12:55:00,52.2,41.2,30.05,WNW,286,15.0,37.0,66,0.00,,,0.00,Wunderground v.1.15,2013-10-17 17:55:00,
2013-10-17 13:00:00,52.7,42.0,30.05,West,272,14.0,14.0,67,0.00,,,0.00,Wunderground v.1.15,2013-10-17 18:00:00,
2013-10-17 13:05:00,53.2,42.1,30.05,WNW,298,12.0,37.0,66,0.00,,,0.00,Wunderground v.1.15,2013-10-17 18:05:00,
2013-10-17 13:10:00,53.2,41.3,30.05,NW,310,13.0,13.0,64,0.00,,,0.00,Wunderground v.1.15,2013-10-17 18:10:00,
2013-10-17 13:20:00,53.4,42.7,30.05,West,279,15.0,37.0,67,0.00,,,0.00,Wunderground v.1.15,2013-10-17 18:20:00,
2013-10-17 13:25:00,53.9,42.0,30.05,NW,321,15.0,37.0,64,0.00,,,0.00,Wunderground v.1.15,2013-10-17 18:25:00,
2013-10-17 13:30:00,54.0,42.1,30.05,WNW,303,15.0,37.0,64,0.00,,,0.00,Wunderground v.1.15,2013-10-17 18:30:00,
2013-10-17 13:35:00,53.8,41.9,30.05,WNW,290,16.0,37.0,64,0.00,,,0.00,Wunderground v.1.15,2013-10-17 18:35:00,
2013-10-17 13:40:00,52.9,41.4,30.05,NW,306,18.0,37.0,65,0.00,,,0.00,Wunderground v.1.15,2013-10-17 18:40:00,
2013-10-17 13:50:00,51.3,40.7,30.05,WNW,291,18.0,37.0,67,0.00,,,0.00,Wunderground v.1.15,2013-10-17 18:50:00,
2013-10-17 13:55:00,51.5,40.9,30.05,NW,326,18.0,37.0,67,0.00,,,0.00,Wunderground v.1.15,2013-10-17 18:55:00,
2013-10-17 14:00:00,52.1,41.1,30.05,WNW,296,17.0,17.0,66,0.00,,,0.00,Wunderground v.1.15,2013-10-17 19:00:00,
2013-10-17 14:05:00,52.4,41.0,30.05,NW,309,16.0,37.0,65,0.00,,,0.00,Wunderground v.1.15,2013-10-17 19:05:00,
2013-10-17 14:10:00,52.2,40.8,30.05,NW,306,17.0,17.0,65,0.00,,,0.00,Wunderground v.1.15,2013-10-17 19:10:00,
2013-10-17 14:15:00,52.5,41.1,30.05,West,278,17.0,37.0,65,0.00,,,0.00,Wunderground v.1.15,2013-10-17 19:15:00,
2013-10-17 14:25:00,52.3,40.5,30.05,NW,305,16.0,21.0,64,0.00,,,0.00,Wunderground v.1.15,2013-10-17 19:25:00,
2013-10-17 14:30:00,51.6,40.2,30.05,NW,315,17.0,37.0,65,0.00,,,0.00,Wunderground v.1.15,2013-10-17 19:30:00,
2013-10-17 14:35:00,51.4,40.4,30.05,NNW,340,17.0,37.0,66,0.00,,,0.00,Wunderground v.1.15,2013-10-17 19:35:00,
2013-10-17 14:40:00,51.4,39.6,30.05,NW,320,18.0,18.0,64,0.00,,,0.00,Wunderground v.1.15,2013-10-17 19:40:00,
2013-10-17 14:45:00,51.9,40.1,30.05,NNW,329,18.0,37.0,64,0.00,,,0.00,Wunderground v.1.15,2013-10-17 19:45:00,
2013-10-17 14:55:00,52.0,40.2,30.04,NW,323,17.0,37.0,64,0.00,,,0.00,Wunderground v.1.15,2013-10-17 19:55:00,
2013-10-17 15:00:00,52.1,40.3,30.04,NNW,330,17.0,37.0,64,0.00,,,0.00,Wunderground v.1.15,2013-10-17 20:00:00,
2013-10-17 15:05:00,52.9,41.0,30.04,NW,323,16.0,37.0,64,0.00,,,0.00,Wunderground v.1.15,2013-10-17 20:05:00,
2013-10-17 15:10:00,52.7,40.5,30.04,WNW,298,15.0,15.0,63,0.00,,,0.00,Wunderground v.1.15,2013-10-17 20:10:00,
2013-10-17 15:15:00,52.1,40.3,30.04,NW,304,15.0,37.0,64,0.00,,,0.00,Wunderground v.1.15,2013-10-17 20:15:00,
2013-10-17 15:20:00,51.8,40.0,30.05,NW,321,15.0,37.0,64,0.00,,,0.00,Wunderground v.1.15,2013-10-17 20:20:00,
2013-10-17 15:30:00,51.1,40.1,30.05,NW,306,16.0,16.0,66,0.00,,,0.00,Wunderground v.1.15,2013-10-17 20:30:00,
2013-10-17 15:35:00,51.0,40.0,30.05,NW,306,14.0,17.0,66,0.00,,,0.00,Wunderground v.1.15,2013-10-17 20:35:00,
2013-10-17 15:40:00,50.7,39.7,30.05,NW,323,14.0,37.0,66,0.00,,,0.00,Wunderground v.1.15,2013-10-17 20:40:00,
2013-10-17 15:45:00,50.7,39.7,30.05,NW,324,14.0,37.0,66,0.00,,,0.00,Wunderground v.1.15,2013-10-17 20:45:00,
2013-10-17 15:50:00,50.5,39.9,30.05,NW,305,13.0,37.0,67,0.00,,,0.00,Wunderground v.1.15,2013-10-17 20:50:00,
2013-10-17 16:00:00,50.4,39.5,30.05,NNW,331,14.0,37.0,66,0.00,,,0.00,Wunderground v.1.15,2013-10-17 21:00:00,
2013-10-17 16:05:00,50.3,39.4,30.06,NW,312,14.0,37.0,66,0.00,,,0.00,Wunderground v.1.15,2013-10-17 21:05:00,
2013-10-17 16:10:00,50.3,39.8,30.06,WNW,299,14.0,37.0,67,0.00,,,0.00,Wunderground v.1.15,2013-10-17 21:10:00,
2013-10-17 16:15:00,50.0,39.1,30.05,NW,322,14.0,37.0,66,0.00,,,0.00,Wunderground v.1.15,2013-10-17 21:15:00,
2013-10-17 16:20:00,49.9,38.6,30.06,NNW,328,15.0,37.0,65,0.00,,,0.00,Wunderground v.1.15,2013-10-17 21:20:00,
2013-10-17 16:25:00,49.9,38.6,30.06,NW,321,16.0,37.0,65,0.00,,,0.00,Wunderground v.1.15,2013-10-17 21:25:00,
2013-10-17 16:30:00,50.0,37.9,30.06,WNW,296,15.0,15.0,63,0.00,,,0.00,Wunderground v.1.15,2013-10-17 21:30:00,
2013-10-17 16:35:00,50.5,38.4,30.06,NW,310,14.0,37.0,63,0.00,,,0.00,Wunderground v.1.15,2013-10-17 21:35:00,
2013-10-17 16:40:00,50.4,37.9,30.06,WNW,300,14.0,37.0,62,0.00,,,0.00,Wunderground v.1.15,2013-10-17 21:40:00,
2013-10-17 16:45:00,49.8,37.3,30.06,NNW,327,16.0,37.0,62,0.00,,,0.00,Wunderground v.1.15,2013-10-17 21:45:00,
2013-10-17 16:50:00,49.7,38.0,30.06,NNW,331,16.0,37.0,64,0.00,,,0.00,Wunderground v.1.15,2013-10-17 21:50:00,
2013-10-17 16:55:00,49.5,38.2,30.06,WNW,292,15.0,37.0,65,0.00,,,0.00,Wunderground v.1.15,2013-10-17 21:55:00,
2013-10-17 17:05:00,49.2,37.9,30.07,NW,316,14.0,37.0,65,0.00,,,0.00,Wunderground v.1.15,2013-10-17 22:05:00,
2013-10-17 17:10:00,49.1,37.8,30.07,NW,317,14.0,37.0,65,0.00,,,0.00,Wunderground v.1.15,2013-10-17 22:10:00,
2013-10-17 17:15:00,48.8,37.6,30.07,NW,321,14.0,37.0,65,0.00,,,0.00,Wunderground v.1.15,2013-10-17 22:15:00,
2013-10-17 17:20:00,48.7,37.1,30.07,NW,316,16.0,16.0,64,0.00,,,0.00,Wunderground v.1.15,2013-10-17 22:20:00,
2013-10-17 17:25:00,48.4,36.8,30.07,NNW,331,17.0,22.0,64,0.00,,,0.00,Wunderground v.1.15,2013-10-17 22:25:00,
2013-10-17 17:35:00,48.0,37.2,30.08,NNW,336,14.0,37.0,66,0.00,,,0.00,Wunderground v.1.15,2013-10-17 22:35:00,
2013-10-17 17:40:00,47.8,37.0,30.08,NW,316,15.0,15.0,66,0.00,,,0.00,Wunderground v.1.15,2013-10-17 22:40:00,
2013-10-17 17:45:00,47.7,37.3,30.08,NW,309,13.0,16.0,67,0.00,,,0.00,Wunderground v.1.15,2013-10-17 22:45:00,
2013-10-17 17:50:00,47.5,36.7,30.09,WNW,294,14.0,37.0,66,0.00,,,0.00,Wunderground v.1.15,2013-10-17 22:50:00,
2013-10-17 17:55:00,47.2,36.8,30.09,WNW,298,15.0,37.0,67,0.00,,,0.00,Wunderground v.1.15,2013-10-17 22:55:00,
2013-10-17 18:00:00,47.0,36.6,30.09,NNW,328,14.0,37.0,67,0.00,,,0.00,Wunderground v.1.15,2013-10-17 23:00:00,
2013-10-17 18:10:00,46.9,36.5,30.10,NNW,339,14.0,14.0,67,0.00,,,0.00,Wunderground v.1.15,2013-10-17 23:10:00,
2013-10-17 18:15:00,46.7,36.7,30.10,NW,321,14.0,18.0,68,0.00,,,0.00,Wunderground v.1.15,2013-10-17 23:15:00,
2013-10-17 18:20:00,46.5,36.5,30.10,NW,321,14.0,14.0,68,0.00,,,0.00,Wunderground v.1.15,2013-10-17 23:20:00,
2013-10-17 18:25:00,46.4,36.0,30.10,NNW,334,13.0,17.0,67,0.00,,,0.00,Wunderground v.1.15,2013-10-17 23:25:00,
2013-10-17 18:30:00,46.2,36.2,30.10,NNW,342,12.0,12.0,68,0.00,,,0.00,Wunderground v.1.15,2013-10-17 23:30:00,
2013-10-17 18:40:00,46.1,36.1,30.11,NNW,331,9.0,9.0,68,0.00,,,0.00,Wunderground v.1.15,2013-10-17 23:40:00,
2013-10-17 18:45:00,46.0,36.0,30.11,NW,310,9.0,12.0,68,0.00,,,0.00,Wunderground v.1.15,2013-10-17 23:45:00,
2013-10-17 18:50:00,46.0,36.4,30.11,WNW,302,9.0,9.0,69,0.00,,,0.00,Wunderground v.1.15,2013-10-17 23:50:00,
2013-10-17 18:55:00,45.9,36.3,30.11,NNW,330,9.0,37.0,69,0.00,,,0.00,Wunderground v.1.15,2013-10-17 23:55:00,
2013-10-17 19:00:00,45.9,36.3,30.12,WNW,302,9.0,9.0,69,0.00,,,0.00,Wunderground v.1.15,2013-10-18 00:00:00,
2013-10-17 19:05:00,45.9,36.7,30.12,NW,319,8.0,37.0,70,0.00,,,0.00,Wunderground v.1.15,2013-10-18 00:05:00,
2013-10-17 19:15:00,45.8,36.6,30.12,NW,316,8.0,37.0,70,0.00,,,0.00,Wunderground v.1.15,2013-10-18 00:15:00,
2013-10-17 19:20:00,45.8,36.6,30.12,NW,312,9.0,9.0,70,0.00,,,0.00,Wunderground v.1.15,2013-10-18 00:20:00,
2013-10-17 19:25:00,45.8,36.9,30.12,NNW,327,9.0,37.0,71,0.00,,,0.00,Wunderground v.1.15,2013-10-18 00:25:00,
2013-10-17 19:30:00,45.7,36.8,30.13,NNW,333,7.0,37.0,71,0.00,,,0.00,Wunderground v.1.15,2013-10-18 00:30:00,
2013-10-17 19:35:00,45.7,36.8,30.13,NW,320,7.0,37.0,71,0.00,,,0.00,Wunderground v.1.15,2013-10-18 00:35:00,
2013-10-17 19:40:00,45.6,36.7,30.13,NW,309,8.0,37.0,71,0.00,,,0.00,Wunderground v.1.15,2013-10-18 00:40:00,
2013-10-17 19:45:00,45.6,36.7,30.13,North,355,7.0,37.0,71,0.00,,,0.00,Wunderground v.1.15,2013-10-18 00:45:00,
2013-10-17 19:50:00,45.5,36.6,30.13,NW,320,6.0,6.0,71,0.00,,,0.00,Wunderground v.1.15,2013-10-18 00:50:00,
2013-10-17 19:55:00,45.5,36.6,30.13,NW,309,6.0,8.0,71,0.00,,,0.00,Wunderground v.1.15,2013-10-18 00:55:00,
2013-10-17 20:00:00,45.4,36.2,30.14,NW,317,7.0,37.0,70,0.00,,,0.00,Wunderground v.1.15,2013-10-18 01:00:00,
2013-10-17 20:05:00,45.4,35.8,30.14,NW,316,8.0,37.0,69,0.00,,,0.00,Wunderground v.1.15,2013-10-18 01:05:00,
2013-10-17 20:15:00,45.3,35.7,30.14,North,5,7.0,37.0,69,0.00,,,0.00,Wunderground v.1.15,2013-10-18 01:15:00,
2013-10-17 20:20:00,45.1,35.5,30.15,NW,323,7.0,37.0,69,0.00,,,0.00,Wunderground v.1.15,2013-10-18 01:20:00,
2013-10-17 20:25:00,44.9,35.3,30.14,WNW,300,7.0,37.0,69,0.00,,,0.00,Wunderground v.1.15,2013-10-18 01:25:00,
2013-10-17 20:30:00,44.7,35.1,30.14,NW,316,7.0,37.0,69,0.00,,,0.00,Wunderground v.1.15,2013-10-18 01:30:00,
2013-10-17 20:35:00,44.4,34.9,30.14,NW,326,7.0,37.0,69,0.00,,,0.00,Wunderground v.1.15,2013-10-18 01:35:00,
2013-10-17 20:40:00,44.1,34.6,30.15,NW,316,7.0,37.0,69,0.00,,,0.00,Wunderground v.1.15,2013-10-18 01:40:00,
2013-10-17 20:50:00,43.6,34.5,30.15,NW,306,7.0,7.0,70,0.00,,,0.00,Wunderground v.1.15,2013-10-18 01:50:00,
2013-10-17 20:55:00,43.3,34.2,30.15,NW,304,7.0,37.0,70,0.00,,,0.00,Wunderground v.1.15,2013-10-18 01:55:00,
2013-10-17 21:00:00,43.0,33.9,30.15,NNW,330,7.0,37.0,70,0.00,,,0.00,Wunderground v.1.15,2013-10-18 02:00:00,
2013-10-17 21:05:00,42.9,33.8,30.15,NW,318,7.0,37.0,70,0.00,,,0.00,Wunderground v.1.15,2013-10-18 02:05:00,
2013-10-17 21:10:00,42.6,33.5,30.16,NW,317,7.0,7.0,70,0.00,,,0.00,Wunderground v.1.15,2013-10-18 02:10:00,
2013-10-17 21:20:00,42.0,33.3,30.16,NW,314,7.0,37.0,71,0.00,,,0.00,Wunderground v.1.15,2013-10-18 02:20:00,
2013-10-17 21:25:00,41.7,33.3,30.16,NW,313,7.0,37.0,72,0.00,,,0.00,Wunderground v.1.15,2013-10-18 02:25:00,
2013-10-17 21:30:00,41.4,33.4,30.17,NW,306,7.0,7.0,73,0.00,,,0.00,Wunderground v.1.15,2013-10-18 02:30:00,
2013-10-17 21:35:00,41.2,33.2,30.17,WNW,298,7.0,37.0,73,0.00,,,0.00,Wunderground v.1.15,2013-10-18 02:35:00,
2013-10-17 21:40:00,41.1,33.1,30.17,NW,314,7.0,37.0,73,0.00,,,0.00,Wunderground v.1.15,2013-10-18 02:40:00,
2013-10-17 21:45:00,40.9,33.2,30.17,NW,311,7.0,37.0,74,0.00,,,0.00,Wunderground v.1.15,2013-10-18 02:45:00,
2013-10-17 21:55:00,40.4,33.1,30.17,NW,316,7.0,37.0,75,0.00,,,0.00,Wunderground v.1.15,2013-10-18 02:55:00,
2013-10-17 22:00:00,40.2,32.9,30.17,WNW,296,6.0,6.0,75,0.00,,,0.00,Wunderground v.1.15,2013-10-18 03:00:00,
2013-10-17 22:05:00,39.9,32.9,30.17,NW,319,5.0,7.0,76,0.00,,,0.00,Wunderground v.1.15,2013-10-18 03:05:00,
2013-10-17 22:10:00,39.8,32.8,30.17,NW,311,4.0,37.0,76,0.00,,,0.00,Wunderground v.1.15,2013-10-18 03:10:00,
2013-10-17 22:15:00,39.6,33.0,30.18,WNW,302,4.0,37.0,77,0.00,,,0.00,Wunderground v.1.15,2013-10-18 03:15:00,
2013-10-17 22:25:00,39.0,32.7,30.18,WNW,295,3.0,37.0,78,0.00,,,0.00,Wunderground v.1.15,2013-10-18 03:25:00,
2013-10-17 22:30:00,38.7,32.4,30.18,WNW,296,4.0,37.0,78,0.00,,,0.00,Wunderground v.1.15,2013-10-18 03:30:00,
2013-10-17 22:35:00,38.6,32.6,30.18,WNW,298,4.0,37.0,79,0.00,,,0.00,Wunderground v.1.15,2013-10-18 03:35:00,
2013-10-17 22:40:00,38.4,32.5,30.18,WNW,290,5.0,37.0,79,0.00,,,0.00,Wunderground v.1.15,2013-10-18 03:40:00,
2013-10-17 22:45:00,38.2,32.6,30.18,WNW,294,5.0,37.0,80,0.00,,,0.00,Wunderground v.1.15,2013-10-18 03:45:00,
2013-10-17 22:50:00,38.3,32.7,30.18,WNW,301,5.0,37.0,80,0.00,,,0.00,Wunderground v.1.15,2013-10-18 03:50:00,
2013-10-17 23:00:00,38.1,32.2,30.18,WNW,293,5.0,5.0,79,0.00,,,0.00,Wunderground v.1.15,2013-10-18 04:00:00,
2013-10-17 23:05:00,37.8,32.2,30.18,WNW,291,5.0,37.0,80,0.00,,,0.00,Wunderground v.1.15,2013-10-18 04:05:00,
2013-10-17 23:10:00,37.4,32.1,30.18,WNW,290,4.0,4.0,81,0.00,,,0.00,Wunderground v.1.15,2013-10-18 04:10:00,
2013-10-17 23:15:00,37.1,31.8,30.18,WNW,293,4.0,5.0,81,0.00,,,0.00,Wunderground v.1.15,2013-10-18 04:15:00,
2013-10-17 23:20:00,36.9,31.9,30.18,WNW,286,5.0,37.0,82,0.00,,,0.00,Wunderground v.1.15,2013-10-18 04:20:00,
2013-10-17 23:25:00,36.8,31.8,30.18,WNW,290,6.0,37.0,82,0.00,,,0.00,Wunderground v.1.15,2013-10-18 04:25:00,
2013-10-17 23:30:00,36.6,31.9,30.18,WNW,288,6.0,37.0,83,0.00,,,0.00,Wunderground v.1.15,2013-10-18 04:30:00,
2013-10-17 23:35:00,36.4,31.7,30.17,WNW,293,6.0,37.0,83,0.00,,,0.00,Wunderground v.1.15,2013-10-18 04:35:00,
2013-10-17 23:40:00,36.1,31.4,30.17,WNW,289,6.0,6.0,83,0.00,,,0.00,Wunderground v.1.15,2013-10-18 04:40:00,
2013-10-17 23:50:00,35.9,31.5,30.17,WNW,293,6.0,37.0,84,0.00,,,0.00,Wunderground v.1.15,2013-10-18 04:50:00,
2013-10-17 23:55:00,35.7,31.3,30.18,WNW,290,6.0,37.0,84,0.00,,,0.00,Wunderground v.1.15,2013-10-18 04:55:00,